Change the Weather History Date:

Tuesday, September 17, 2013

  Actual Average (KAND) Record (KAND)
Temperature  
Mean Temperature 72 °F -  
Max Temperature 78 °F 81 °F 94 °F (1953)
Min Temperature 66 °F 62 °F 48 °F (1985)
Cooling Degree Days 6    
Growing Degree Days 22 (Base 50)    
Moisture  
Dew Point 59 °F    
Average Humidity 67    
Maximum Humidity 83    
Minimum Humidity 52    
Precipitation  
Precipitation 0.00 in - - ()
Sea Level Pressure  
Sea Level Pressure 30.22 in    
Wind  
Wind Speed 7 mph (NE)    
Max Wind Speed 9 mph    
Max Gust Speed 16 mph    
Visibility 10 miles    
Events      
Averages and records for this station are not official NWS values.
T = Trace of Precipitation, MM = Missing Value Source: NWS Daily Summary

Daily Weather History Graph

Daily Weather History Graph

Search for Another Location

Airport or City:

Trip Planner

Search our weather history database for the weather conditions in past years. The results will help you decide how hot, cold, wet, or windy it might be!

Date:

Astronomy

Sep. 17, 2013 Rise Set
Actual Time 7:13 AM EDT 7:32 PM EDT
Civil Twilight 6:48 AM EDT 7:57 PM EDT
Nautical Twilight 6:18 AM EDT 8:26 PM EDT
Astronomical Twilight 5:48 AM EDT 8:56 PM EDT
Moon 6:16 PM EDT (9/17) 5:10 AM EDT (9/17)
Length of Visible Light 13h 08m
Length of Day
12h 18m
Waxing Gibbous, 96% of the Moon is Illuminated
Sep 17
Waxing Gibbous
Sep 19
Full
Sep 26
Last Quarter
Oct 4
New
Oct 11
First Quarter

Hourly Weather History & Observations

Time (EDT) Temp. Dew Point Humidity Pressure Visibility Wind Dir Wind Speed Gust Speed Precip Events Conditions
12:56 AM 71.1 °F 64.0 °F 78% 30.14 in 10.0 mi North 4.6 mph - N/A   Clear
1:56 AM 72.0 °F 64.0 °F 76% 30.14 in 10.0 mi NNE 8.1 mph - N/A   Clear
2:56 AM 73.0 °F 63.0 °F 71% 30.14 in 10.0 mi NE 9.2 mph 16.1 mph N/A   Clear
3:56 AM 71.1 °F 63.0 °F 75% 30.15 in 10.0 mi NE 5.8 mph - N/A   Partly Cloudy
4:56 AM 71.1 °F 62.1 °F 73% 30.16 in 10.0 mi NE 6.9 mph - N/A   Overcast
5:56 AM 69.1 °F 62.1 °F 78% 30.18 in 10.0 mi NE 6.9 mph - N/A   Mostly Cloudy
6:56 AM 68.0 °F 61.0 °F 78% 30.20 in 10.0 mi NE 8.1 mph - N/A   Mostly Cloudy
7:56 AM 66.9 °F 60.1 °F 79% 30.24 in 10.0 mi NE 6.9 mph - N/A   Scattered Clouds
8:05 AM 66.2 °F 60.8 °F 83% 30.26 in 10.0 mi NE 6.9 mph - N/A   Mostly Cloudy
8:39 AM 69.8 °F 57.2 °F 64% 30.26 in 10.0 mi NE 6.9 mph - N/A   Scattered Clouds
8:56 AM 69.1 °F 57.9 °F 68% 30.25 in 10.0 mi NE 8.1 mph - N/A   Clear
9:56 AM 70.0 °F 57.0 °F 63% 30.27 in 10.0 mi NE 9.2 mph - N/A   Overcast
10:56 AM 70.0 °F 57.9 °F 65% 30.29 in 10.0 mi ENE 8.1 mph - N/A   Overcast
11:56 AM 71.1 °F 57.9 °F 63% 30.30 in 10.0 mi ENE 5.8 mph - N/A   Mostly Cloudy
12:56 PM 72.0 °F 57.0 °F 59% 30.28 in 10.0 mi NE 9.2 mph - N/A   Overcast
1:56 PM 73.9 °F 57.9 °F 57% 30.25 in 10.0 mi ENE 9.2 mph - N/A   Overcast
2:56 PM 73.9 °F 57.9 °F 57% 30.24 in 10.0 mi NE 5.8 mph - N/A   Overcast
3:42 PM 75.2 °F 57.2 °F 53% 30.24 in 2.0 mi NE 6.9 mph - N/A   Haze
3:51 PM 75.2 °F 57.2 °F 53% 30.24 in 10.0 mi ENE 6.9 mph - N/A   Mostly Cloudy
3:56 PM 75.9 °F 57.9 °F 54% 30.22 in 10.0 mi NE 6.9 mph - N/A   Mostly Cloudy
4:56 PM 77.0 °F 57.9 °F 52% 30.21 in 10.0 mi NE 9.2 mph - N/A   Mostly Cloudy
5:56 PM 75.0 °F 59.0 °F 57% 30.20 in 10.0 mi NNE 5.8 mph - N/A   Overcast
6:56 PM 73.0 °F 57.9 °F 59% 30.20 in 10.0 mi NNE 4.6 mph - N/A   Overcast
7:56 PM 70.0 °F 57.9 °F 65% 30.21 in 10.0 mi NE 3.5 mph - N/A   Mostly Cloudy
8:56 PM 66.9 °F 59.0 °F 76% 30.22 in 10.0 mi NNE 4.6 mph - N/A   Clear
9:56 PM 66.9 °F 60.1 °F 79% 30.24 in 10.0 mi North 3.5 mph - N/A   Overcast
10:56 PM 66.9 °F 59.0 °F 76% 30.24 in 10.0 mi North 3.5 mph - N/A   Overcast
11:56 PM 66.9 °F 57.9 °F 73% 30.24 in 10.0 mi NNE 8.1 mph - N/A   Overcast